QPF
0.01 0.01 0.01 0.01 0.00 0.00 0.00 0.00 0.01 0.02 0.02 0.03 0.03 0.04 0.04 0.04 0.04 0.04 0.03 0.02 0.02 0.01 0.02 0.02 0.03 0.03 0.02 0.02 0.02 0.02 0.03 0.04 0.05 0.08 0.10 0.10 0.08 0.07 0.06 0.05 0.05 0.08 0.09 0.09
0.01 0.01 0.01 0.01 0.01 0.00 0.00 0.00 0.00 0.01 0.01 0.01 0.02 0.03 0.04 0.03 0.03 0.02 0.02 0.02 0.03 0.02 0.02 0.03 0.04 0.04 0.03 0.02 0.03 0.03 0.04 0.05 0.07 0.10 0.14 0.16 0.14 0.12 0.10 0.08 0.07 0.09 0.07 0.06
0.02 0.01 0.02 0.01 0.01 0.01 0.01 0.01 0.01 0.01 0.01 0.01 0.03 0.08 0.05 0.03 0.02 0.02 0.01 0.01 0.01 0.01 0.02 0.03 0.05 0.07 0.07 0.05 0.05 0.05 0.05 0.06 0.08 0.12 0.17 0.20 0.19 0.16 0.15 0.11 0.09 0.09 0.06 0.06
0.02 0.03 0.02 0.02 0.01 0.01 0.01 0.02 0.02 0.01 0.01 0.02 0.02 0.04 0.03 0.03 0.03 0.02 0.03 0.03 0.01 0.01 0.02 0.04 0.06 0.07 0.08 0.09 0.08 0.07 0.07 0.07 0.09 0.12 0.16 0.19 0.20 0.18 0.17 0.16 0.11 0.09 0.08 0.08
0.03 0.04 0.02 0.02 0.02 0.03 0.04 0.05 0.06 0.04 0.03 0.02 0.02 0.02 0.02 0.03 0.05 0.05 0.04 0.03 0.02 0.01 0.02 0.05 0.08 0.07 0.07 0.08 0.10 0.09 0.08 0.08 0.09 0.12 0.16 0.18 0.19 0.19 0.17 0.13 0.10 0.09 0.08 0.08
0.02 0.04 0.03 0.03 0.03 0.05 0.07 0.09 0.07 0.05 0.04 0.04 0.03 0.02 0.04 0.05 0.06 0.07 0.05 0.02 0.01 0.02 0.02 0.03 0.09 0.09 0.08 0.08 0.09 0.09 0.08 0.07 0.07 0.08 0.11 0.12 0.15 0.16 0.15 0.12 0.10 0.09 0.08 0.07
0.02 0.03 0.04 0.04 0.04 0.05 0.07 0.08 0.09 0.08 0.05 0.05 0.05 0.04 0.05 0.09 0.08 0.05 0.04 0.03 0.01 0.02 0.02 0.02 0.04 0.11 0.15 0.12 0.10 0.09 0.09 0.08 0.07 0.07 0.08 0.10 0.12 0.13 0.13 0.12 0.12 0.09 0.06 0.04
0.02 0.03 0.05 0.05 0.03 0.06 0.07 0.07 0.08 0.12 0.10 0.05 0.05 0.05 0.04 0.06 0.07 0.06 0.04 0.03 0.02 0.03 0.02 0.02 0.02 0.05 0.11 0.12 0.11 0.09 0.09 0.09 0.08 0.07 0.08 0.09 0.10 0.11 0.12 0.12 0.10 0.09 0.07 0.05
0.04 0.05 0.06 0.07 0.07 0.08 0.08 0.07 0.06 0.04 0.05 0.04 0.05 0.05 0.04 0.06 0.08 0.05 0.03 0.04 0.04 0.03 0.03 0.02 0.02 0.03 0.05 0.07 0.09 0.09 0.09 0.08 0.07 0.07 0.07 0.08 0.08 0.09 0.11 0.10 0.08 0.07 0.07 0.05
0.06 0.07 0.07 0.08 0.10 0.10 0.11 0.07 0.04 0.03 0.04 0.04 0.06 0.08 0.07 0.06 0.08 0.05 0.03 0.04 0.07 0.04 0.04 0.03 0.03 0.03 0.05 0.06 0.07 0.09 0.11 0.10 0.09 0.07 0.07 0.07 0.07 0.07 0.07 0.07 0.08 0.06 0.06 0.05
0.09 0.10 0.09 0.09 0.11 0.11 0.15 0.12 0.06 0.04 0.05 0.06 0.12 0.13 0.09 0.06 0.04 0.03 0.05 0.05 0.05 0.04 0.04 0.04 0.05 0.05 0.06 0.07 0.08 0.08 0.07 0.07 0.07 0.06 0.07 0.08 0.07 0.08 0.08 0.06 0.08 0.08 0.08 0.09
0.12 0.13 0.12 0.14 0.14 0.11 0.11 0.11 0.09 0.06 0.06 0.07 0.11 0.11 0.08 0.07 0.06 0.05 0.05 0.07 0.08 0.07 0.06 0.06 0.05 0.06 0.06 0.07 0.07 0.07 0.06 0.04 0.04 0.04 0.05 0.05 0.06 0.07 0.09 0.09 0.10 0.10 0.09 0.08
0.12 0.13 0.15 0.21 0.21 0.13 0.09 0.06 0.06 0.06 0.06 0.07 0.09 0.09 0.08 0.09 0.07 0.06 0.07 0.07 0.07 0.06 0.08 0.07 0.07 0.07 0.07 0.07 0.07 0.07 0.05 0.04 0.04 0.04 0.05 0.05 0.07 0.08 0.08 0.07 0.06 0.06 0.06 0.06
0.14 0.15 0.19 0.25 0.22 0.14 0.08 0.06 0.06 0.13 0.11 0.11 0.11 0.10 0.10 0.10 0.10 0.07 0.06 0.06 0.05 0.06 0.08 0.08 0.09 0.10 0.09 0.08 0.08 0.07 0.07 0.05 0.05 0.06 0.06 0.07 0.08 0.07 0.06 0.05 0.04 0.03 0.04 0.07
0.14 0.15 0.20 0.24 0.23 0.15 0.08 0.07 0.08 0.09 0.11 0.13 0.14 0.12 0.09 0.09 0.10 0.09 0.05 0.04 0.04 0.05 0.06 0.09 0.10 0.09 0.10 0.10 0.09 0.09 0.08 0.06 0.05 0.05 0.06 0.06 0.07 0.05 0.04 0.04 0.04 0.04 0.05 0.07
0.10 0.14 0.20 0.23 0.23 0.15 0.10 0.11 0.11 0.10 0.11 0.11 0.11 0.12 0.09 0.07 0.07 0.08 0.05 0.03 0.04 0.04 0.06 0.08 0.10 0.12 0.11 0.09 0.09 0.09 0.08 0.08 0.09 0.08 0.07 0.07 0.06 0.05 0.04 0.04 0.04 0.04 0.05 0.08
0.08 0.11 0.14 0.22 0.24 0.14 0.12 0.12 0.14 0.15 0.12 0.12 0.09 0.07 0.06 0.05 0.05 0.09 0.08 0.03 0.03 0.04 0.05 0.06 0.07 0.08 0.07 0.08 0.08 0.08 0.08 0.08 0.10 0.10 0.08 0.07 0.06 0.05 0.04 0.04 0.05 0.06 0.07 0.08
0.08 0.09 0.11 0.15 0.19 0.15 0.14 0.11 0.13 0.16 0.14 0.13 0.10 0.06 0.03 0.03 0.03 0.04 0.06 0.04 0.03 0.04 0.05 0.07 0.08 0.08 0.08 0.10 0.10 0.08 0.06 0.05 0.06 0.07 0.07 0.06 0.05 0.05 0.05 0.04 0.05 0.05 0.04 0.04
0.09 0.07 0.08 0.10 0.15 0.19 0.17 0.10 0.09 0.13 0.13 0.11 0.08 0.05 0.03 0.02 0.02 0.02 0.02 0.02 0.02 0.03 0.05 0.08 0.08 0.09 0.09 0.09 0.11 0.08 0.06 0.05 0.05 0.04 0.03 0.04 0.04 0.05 0.04 0.04 0.03 0.02 0.02 0.02
0.05 0.06 0.09 0.10 0.19 0.20 0.14 0.09 0.10 0.12 0.12 0.10 0.07 0.05 0.04 0.03 0.03 0.02 0.02 0.02 0.02 0.02 0.03 0.05 0.04 0.05 0.06 0.07 0.07 0.05 0.05 0.05 0.04 0.03 0.03 0.03 0.03 0.03 0.03 0.02 0.02 0.02 0.01 0.01
0.05 0.05 0.05 0.10 0.19 0.20 0.13 0.08 0.08 0.11 0.11 0.09 0.06 0.05 0.04 0.04 0.04 0.04 0.03 0.03 0.03 0.02 0.03 0.03 0.03 0.02 0.02 0.03 0.03 0.03 0.03 0.03 0.02 0.02 0.02 0.02 0.02 0.01 0.01 0.01 0.01 0.01 0.01 0.01
0.04 0.04 0.05 0.09 0.16 0.20 0.13 0.07 0.07 0.07 0.07 0.06 0.04 0.03 0.03 0.03 0.03 0.03 0.02 0.02 0.02 0.02 0.02 0.02 0.03 0.03 0.03 0.03 0.02 0.02 0.02 0.03 0.02 0.02 0.01 0.01 0.01 0.01 0.01 0.01 0.01 0.01 0.01 0.01
0.03 0.03 0.05 0.08 0.13 0.13 0.09 0.07 0.06 0.05 0.04 0.04 0.03 0.02 0.02 0.02 0.02 0.02 0.01 0.01 0.01 0.01 0.02 0.02 0.02 0.02 0.02 0.02 0.02 0.03 0.03 0.02 0.01 0.01 0.01 0.01 0.01 0.00 0.00 0.01 0.01 0.01 0.01 0.01
0.03 0.03 0.03 0.05 0.07 0.07 0.07 0.06 0.05 0.04 0.03 0.03 0.03 0.02 0.01 0.01 0.01 0.01 0.01 0.01 0.01 0.01 0.01 0.01 0.01 0.00 0.00 0.01 0.01 0.02 0.02 0.02 0.02 0.01 0.01 0.01 0.01 0.00 0.00 0.01 0.01 0.00 0.00 0.01
0.03 0.03 0.03 0.03 0.04 0.05 0.05 0.05 0.04 0.03 0.03 0.02 0.02 0.02 0.01 0.00 0.00 0.00 0.01 0.01 0.01 0.01 0.00 0.00 0.00 0.00 0.00 0.00 0.00 0.01 0.02 0.02 0.03 0.03 0.02 0.01 0.01 0.01 0.01 0.01 0.01 0.01 0.01 0.00
0.04 0.04 0.04 0.04 0.03 0.03 0.02 0.03 0.03 0.03 0.02 0.01 0.01 0.01 0.00 0.00 0.00 0.01 0.01 0.01 0.01 0.00 0.00 0.00 0.00 0.00 0.00 0.00 0.00 0.00 0.01 0.01 0.02 0.02 0.03 0.02 0.02 0.02 0.02 0.01 0.01 0.01 0.00 0.00
0.06 0.06 0.05 0.04 0.03 0.02 0.02 0.02 0.02 0.02 0.01 0.01 0.01 0.01 0.01 0.00 0.01 0.01 0.01 0.01 0.00 0.00 0.00 0.00 0.00 0.00 0.00 0.00 0.00 0.00 0.00 0.00 0.00 0.01 0.01 0.01 0.02 0.02 0.02 0.01 0.01 0.00 0.00 0.00
MSLP
1007.18 1007.36 1007.61 1007.90 1008.18 1008.39 1008.50 1008.45 1008.26 1007.91 1007.47 1006.98 1006.52 1006.15 1005.93 1005.87 1005.98 1006.22 1006.55 1006.91 1007.22 1007.44 1007.54 1007.52 1007.39 1007.18 1006.93 1006.68 1006.47 1006.34 1006.29 1006.33 1006.45 1006.65 1006.92 1007.24 1007.62 1008.03 1008.49 1008.98 1009.49 1010.02 1010.55 1011.08
1007.87 1007.90 1007.90 1007.88 1007.80 1007.66 1007.43 1007.13 1006.77 1006.39 1006.01 1005.70 1005.49 1005.41 1005.47 1005.67 1005.99 1006.36 1006.76 1007.12 1007.41 1007.58 1007.64 1007.59 1007.45 1007.25 1007.02 1006.80 1006.60 1006.46 1006.38 1006.37 1006.42 1006.54 1006.72 1006.97 1007.29 1007.67 1008.11 1008.61 1009.14 1009.71 1010.28 1010.86
1008.66 1008.52 1008.30 1007.98 1007.57 1007.09 1006.56 1006.01 1005.49 1005.04 1004.71 1004.53 1004.52 1004.68 1004.98 1005.40 1005.89 1006.39 1006.85 1007.24 1007.52 1007.68 1007.72 1007.67 1007.54 1007.37 1007.17 1006.98 1006.82 1006.68 1006.58 1006.52 1006.51 1006.55 1006.66 1006.85 1007.11 1007.45 1007.88 1008.37 1008.92 1009.50 1010.09 1010.68
1009.38 1009.11 1008.69 1008.12 1007.44 1006.68 1005.89 1005.13 1004.47 1003.97 1003.65 1003.56 1003.70 1004.04 1004.53 1005.12 1005.74 1006.35 1006.88 1007.31 1007.60 1007.77 1007.82 1007.79 1007.69 1007.56 1007.41 1007.26 1007.12 1006.99 1006.88 1006.79 1006.74 1006.73 1006.78 1006.92 1007.14 1007.45 1007.86 1008.34 1008.87 1009.45 1010.03 1010.61
1009.90 1009.51 1008.94 1008.20 1007.33 1006.37 1005.40 1004.50 1003.74 1003.20 1002.90 1002.88 1003.12 1003.58 1004.20 1004.91 1005.64 1006.33 1006.92 1007.39 1007.72 1007.91 1008.00 1008.00 1007.94 1007.85 1007.75 1007.63 1007.52 1007.40 1007.29 1007.20 1007.12 1007.09 1007.12 1007.23 1007.43 1007.73 1008.11 1008.57 1009.08 1009.61 1010.15 1010.68
1010.12 1009.64 1008.98 1008.14 1007.17 1006.11 1005.06 1004.10 1003.31 1002.76 1002.49 1002.52 1002.83 1003.38 1004.08 1004.87 1005.68 1006.43 1007.07 1007.57 1007.93 1008.16 1008.28 1008.32 1008.30 1008.25 1008.18 1008.10 1008.02 1007.92 1007.83 1007.74 1007.68 1007.66 1007.70 1007.81 1008.02 1008.31 1008.68 1009.11 1009.57 1010.04 1010.51 1010.94
1009.99 1009.48 1008.79 1007.93 1006.94 1005.89 1004.85 1003.92 1003.16 1002.66 1002.45 1002.53 1002.90 1003.50 1004.26 1005.09 1005.93 1006.71 1007.38 1007.91 1008.30 1008.55 1008.70 1008.77 1008.78 1008.76 1008.72 1008.66 1008.60 1008.53 1008.47 1008.41 1008.39 1008.41 1008.49 1008.64 1008.88 1009.18 1009.55 1009.95 1010.36 1010.75 1011.12 1011.44
1009.60 1009.08 1008.41 1007.60 1006.69 1005.73 1004.80 1003.97 1003.32 1002.92 1002.78 1002.94 1003.36 1003.99 1004.76 1005.61 1006.45 1007.23 1007.90 1008.44 1008.83 1009.10 1009.26 1009.34 1009.36 1009.35 1009.32 1009.28 1009.24 1009.20 1009.18 1009.18 1009.22 1009.31 1009.46 1009.68 1009.97 1010.31 1010.68 1011.05 1011.41 1011.72 1011.98 1012.18
1009.07 1008.57 1007.96 1007.26 1006.49 1005.70 1004.94 1004.28 1003.79 1003.51 1003.49 1003.71 1004.18 1004.82 1005.59 1006.42 1007.24 1007.99 1008.63 1009.15 1009.52 1009.77 1009.92 1009.99 1010.01 1009.99 1009.96 1009.93 1009.91 1009.91 1009.94 1010.01 1010.13 1010.31 1010.55 1010.86 1011.22 1011.61 1011.99 1012.35 1012.66 1012.90 1013.06 1013.15
1008.55 1008.10 1007.60 1007.04 1006.45 1005.86 1005.31 1004.86 1004.55 1004.43 1004.52 1004.81 1005.31 1005.96 1006.70 1007.48 1008.25 1008.94 1009.53 1009.99 1010.32 1010.53 1010.65 1010.69 1010.68 1010.65 1010.61 1010.58 1010.58 1010.62 1010.71 1010.86 1011.07 1011.35 1011.70 1012.11 1012.54 1012.98 1013.40 1013.75 1014.03 1014.21 1014.30 1014.30
1008.19 1007.81 1007.42 1007.03 1006.64 1006.27 1005.94 1005.69 1005.57 1005.60 1005.80 1006.16 1006.67 1007.30 1007.99 1008.70 1009.38 1010.00 1010.51 1010.90 1011.17 1011.32 1011.39 1011.39 1011.35 1011.29 1011.24 1011.22 1011.24 1011.33 1011.48 1011.71 1012.02 1012.40 1012.85 1013.34 1013.85 1014.35 1014.79 1015.16 1015.42 1015.57 1015.61 1015.56
1008.04 1007.75 1007.51 1007.28 1007.08 1006.91 1006.79 1006.74 1006.78 1006.93 1007.21 1007.61 1008.12 1008.70 1009.33 1009.96 1010.55 1011.07 1011.49 1011.79 1011.99 1012.09 1012.11 1012.06 1011.99 1011.92 1011.87 1011.85 1011.91 1012.04 1012.25 1012.56 1012.95 1013.42 1013.96 1014.53 1015.10 1015.64 1016.11 1016.49 1016.76 1016.90 1016.92 1016.86
1008.08 1007.91 1007.80 1007.73 1007.71 1007.72 1007.77 1007.87 1008.04 1008.29 1008.62 1009.04 1009.52 1010.05 1010.61 1011.14 1011.64 1012.06 1012.39 1012.62 1012.75 1012.79 1012.77 1012.70 1012.61 1012.53 1012.49 1012.50 1012.59 1012.77 1013.05 1013.42 1013.89 1014.43 1015.03 1015.65 1016.26 1016.83 1017.32 1017.70 1017.97 1018.12 1018.16 1018.11
1008.21 1008.16 1008.19 1008.27 1008.40 1008.56 1008.75 1008.97 1009.24 1009.54 1009.90 1010.31 1010.76 1011.24 1011.71 1012.17 1012.57 1012.91 1013.17 1013.33 1013.41 1013.42 1013.37 1013.29 1013.21 1013.15 1013.13 1013.18 1013.32 1013.56 1013.89 1014.32 1014.84 1015.43 1016.06 1016.70 1017.33 1017.90 1018.39 1018.78 1019.05 1019.22 1019.28 1019.28
1008.27 1008.36 1008.54 1008.77 1009.03 1009.31 1009.61 1009.92 1010.24 1010.58 1010.95 1011.35 1011.76 1012.19 1012.60 1012.98 1013.32 1013.60 1013.81 1013.94 1013.99 1013.99 1013.94 1013.88 1013.82 1013.79 1013.82 1013.93 1014.12 1014.41 1014.80 1015.27 1015.83 1016.43 1017.07 1017.71 1018.32 1018.87 1019.34 1019.71 1019.99 1020.17 1020.27 1020.31
1008.15 1008.40 1008.72 1009.09 1009.47 1009.86 1010.24 1010.62 1010.99 1011.36 1011.73 1012.11 1012.50 1012.89 1013.26 1013.61 1013.91 1014.15 1014.34 1014.46 1014.51 1014.52 1014.50 1014.47 1014.45 1014.48 1014.57 1014.73 1014.99 1015.33 1015.76 1016.27 1016.84 1017.45 1018.07 1018.68 1019.25 1019.76 1020.19 1020.54 1020.81 1021.00 1021.12 1021.22
1007.79 1008.21 1008.68 1009.18 1009.68 1010.17 1010.63 1011.06 1011.47 1011.86 1012.25 1012.63 1013.01 1013.39 1013.75 1014.08 1014.38 1014.62 1014.81 1014.93 1015.01 1015.05 1015.07 1015.09 1015.13 1015.22 1015.36 1015.59 1015.90 1016.29 1016.76 1017.29 1017.86 1018.46 1019.05 1019.61 1020.13 1020.58 1020.97 1021.28 1021.52 1021.71 1021.86 1021.98
1007.23 1007.82 1008.44 1009.07 1009.69 1010.26 1010.79 1011.28 1011.73 1012.16 1012.57 1012.97 1013.37 1013.76 1014.14 1014.48 1014.79 1015.06 1015.27 1015.43 1015.54 1015.62 1015.68 1015.75 1015.84 1015.99 1016.19 1016.47 1016.83 1017.26 1017.76 1018.29 1018.86 1019.43 1019.98 1020.49 1020.95 1021.35 1021.68 1021.95 1022.17 1022.34 1022.50 1022.65
1006.59 1007.34 1008.11 1008.86 1009.58 1010.24 1010.84 1011.38 1011.88 1012.35 1012.80 1013.24 1013.68 1014.10 1014.51 1014.89 1015.23 1015.53 1015.77 1015.97 1016.12 1016.23 1016.34 1016.45 1016.59 1016.78 1017.03 1017.35 1017.74 1018.19 1018.70 1019.24 1019.79 1020.33 1020.84 1021.30 1021.71 1022.05 1022.33 1022.56 1022.75 1022.92 1023.07 1023.23
1006.05 1006.94 1007.84 1008.70 1009.50 1010.23 1010.90 1011.50 1012.05 1012.56 1013.06 1013.54 1014.02 1014.48 1014.93 1015.35 1015.74 1016.07 1016.35 1016.58 1016.76 1016.91 1017.04 1017.18 1017.35 1017.57 1017.84 1018.19 1018.59 1019.06 1019.56 1020.09 1020.62 1021.13 1021.60 1022.02 1022.38 1022.68 1022.93 1023.13 1023.30 1023.45 1023.61 1023.77
1005.79 1006.79 1007.77 1008.71 1009.58 1010.37 1011.08 1011.72 1012.31 1012.86 1013.40 1013.93 1014.45 1014.95 1015.45 1015.91 1016.33 1016.69 1017.01 1017.26 1017.46 1017.63 1017.78 1017.94 1018.12 1018.35 1018.63 1018.98 1019.38 1019.84 1020.34 1020.85 1021.35 1021.83 1022.27 1022.66 1022.98 1023.26 1023.48 1023.66 1023.82 1023.97 1024.12 1024.29
1005.90 1006.97 1008.01 1009.00 1009.90 1010.71 1011.44 1012.10 1012.72 1013.30 1013.87 1014.43 1014.98 1015.52 1016.05 1016.54 1016.99 1017.38 1017.71 1017.98 1018.20 1018.38 1018.54 1018.70 1018.89 1019.11 1019.39 1019.73 1020.12 1020.56 1021.04 1021.52 1022.00 1022.45 1022.86 1023.21 1023.52 1023.77 1023.99 1024.17 1024.32 1024.48 1024.63 1024.80
1006.42 1007.52 1008.57 1009.56 1010.45 1011.26 1011.98 1012.65 1013.27 1013.86 1014.44 1015.02 1015.59 1016.15 1016.70 1017.21 1017.68 1018.08 1018.43 1018.71 1018.94 1019.13 1019.29 1019.46 1019.64 1019.87 1020.14 1020.46 1020.84 1021.25 1021.70 1022.15 1022.59 1023.01 1023.39 1023.73 1024.01 1024.26 1024.47 1024.65 1024.81 1024.98 1025.14 1025.31
1007.28 1008.36 1009.38 1010.33 1011.19 1011.96 1012.66 1013.30 1013.90 1014.49 1015.07 1015.65 1016.23 1016.80 1017.36 1017.88 1018.35 1018.77 1019.13 1019.42 1019.66 1019.86 1020.04 1020.21 1020.40 1020.63 1020.89 1021.20 1021.56 1021.95 1022.36 1022.78 1023.18 1023.57 1023.92 1024.23 1024.50 1024.73 1024.93 1025.12 1025.29 1025.46 1025.63 1025.80
1008.35 1009.37 1010.33 1011.21 1012.00 1012.71 1013.37 1013.97 1014.55 1015.12 1015.69 1016.27 1016.85 1017.42 1017.98 1018.50 1018.98 1019.41 1019.77 1020.08 1020.34 1020.56 1020.76 1020.95 1021.16 1021.40 1021.66 1021.97 1022.31 1022.68 1023.06 1023.44 1023.81 1024.15 1024.46 1024.74 1024.98 1025.20 1025.39 1025.57 1025.75 1025.92 1026.09 1026.26
1009.49 1010.41 1011.27 1012.06 1012.78 1013.43 1014.04 1014.61 1015.16 1015.71 1016.27 1016.84 1017.41 1017.98 1018.54 1019.06 1019.54 1019.98 1020.36 1020.69 1020.97 1021.22 1021.45 1021.68 1021.92 1022.18 1022.46 1022.77 1023.11 1023.46 1023.81 1024.15 1024.48 1024.78 1025.05 1025.28 1025.49 1025.68 1025.85 1026.01 1026.17 1026.33 1026.50 1026.66
1010.54 1011.35 1012.11 1012.81 1013.45 1014.05 1014.61 1015.16 1015.69 1016.24 1016.79 1017.36 1017.93 1018.49 1019.04 1019.57 1020.06 1020.50 1020.89 1021.25 1021.56 1021.84 1022.12 1022.38 1022.66 1022.95 1023.26 1023.59 1023.93 1024.27 1024.60 1024.91 1025.19 1025.45 1025.66 1025.85 1026.01 1026.15 1026.28 1026.41 1026.55 1026.69 1026.83 1026.97
Thickness
5706 5719 5727 5729 5735 5739 5731 5726 5720 5730 5741 5757 5767 5772 5777 5781 5784 5785 5786 5787 5787 5786 5786 5787 5786 5784 5783 5781 5780 5777 5773 5770 5768 5766 5764 5761 5759 5756 5754 5752 5750 5748 5745 5743
5699 5715 5721 5723 5731 5738 5738 5738 5736 5739 5744 5765 5770 5773 5774 5776 5779 5778 5780 5783 5784 5784 5784 5783 5783 5781 5780 5778 5777 5774 5770 5768 5766 5763 5761 5758 5756 5753 5750 5748 5747 5745 5743 5741
5678 5699 5707 5701 5720 5729 5733 5740 5739 5732 5746 5761 5762 5765 5768 5772 5775 5776 5777 5778 5779 5781 5781 5781 5780 5780 5777 5776 5774 5771 5768 5766 5764 5761 5758 5756 5754 5750 5747 5745 5743 5741 5740 5738
5669 5681 5674 5700 5729 5735 5734 5738 5744 5748 5754 5759 5762 5764 5768 5771 5772 5772 5774 5775 5776 5776 5777 5777 5777 5776 5775 5773 5770 5767 5764 5763 5761 5757 5754 5752 5748 5745 5743 5741 5739 5737 5735 5734
5656 5661 5676 5704 5722 5726 5724 5724 5741 5744 5749 5755 5759 5758 5756 5765 5770 5770 5771 5773 5774 5774 5774 5773 5772 5771 5769 5766 5763 5761 5760 5759 5757 5755 5751 5748 5744 5742 5740 5737 5735 5733 5731 5730
5653 5656 5662 5692 5721 5734 5728 5713 5737 5743 5742 5746 5750 5735 5740 5757 5762 5764 5766 5767 5768 5768 5767 5766 5766 5765 5761 5758 5756 5755 5755 5755 5753 5752 5749 5745 5742 5738 5736 5733 5730 5728 5726 5726
5648 5651 5667 5700 5719 5727 5702 5707 5731 5739 5740 5743 5742 5743 5747 5752 5754 5757 5759 5760 5762 5761 5758 5758 5759 5758 5754 5752 5750 5751 5751 5749 5747 5746 5744 5741 5737 5734 5730 5727 5724 5722 5720 5720
5643 5644 5660 5701 5710 5704 5706 5722 5728 5734 5739 5740 5740 5741 5743 5746 5746 5749 5749 5751 5753 5751 5749 5750 5752 5750 5747 5745 5747 5747 5745 5742 5740 5739 5737 5735 5731 5727 5724 5721 5718 5715 5714 5713
5651 5658 5680 5695 5701 5708 5715 5718 5725 5729 5734 5738 5735 5733 5735 5737 5738 5740 5742 5744 5745 5743 5742 5742 5744 5743 5741 5741 5742 5740 5738 5735 5733 5732 5730 5728 5725 5721 5718 5715 5712 5709 5708 5706
5653 5665 5678 5688 5696 5704 5711 5715 5721 5724 5727 5729 5728 5728 5728 5729 5729 5731 5734 5736 5736 5734 5733 5733 5735 5736 5736 5736 5735 5734 5731 5728 5726 5724 5722 5720 5718 5716 5712 5709 5706 5705 5702 5700
5649 5660 5671 5681 5689 5696 5703 5710 5713 5715 5718 5720 5722 5721 5721 5720 5722 5723 5725 5727 5728 5726 5725 5725 5727 5728 5729 5729 5729 5726 5723 5721 5718 5717 5714 5710 5707 5704 5703 5701 5700 5699 5697 5696
5642 5654 5660 5668 5681 5691 5694 5697 5701 5704 5707 5710 5713 5713 5713 5713 5715 5716 5716 5718 5718 5717 5717 5716 5718 5719 5720 5721 5719 5717 5715 5713 5711 5709 5706 5702 5698 5693 5690 5690 5690 5690 5689 5688
5647 5656 5662 5669 5676 5682 5685 5690 5694 5697 5698 5699 5702 5705 5705 5705 5705 5706 5708 5709 5709 5709 5708 5707 5708 5708 5710 5711 5711 5709 5707 5706 5704 5702 5699 5695 5692 5689 5683 5679 5678 5678 5677 5677
5646 5652 5655 5661 5665 5671 5676 5682 5684 5686 5689 5691 5692 5693 5696 5697 5696 5696 5696 5698 5699 5699 5698 5698 5698 5698 5700 5702 5702 5701 5699 5698 5697 5694 5692 5689 5685 5682 5679 5675 5670 5667 5665 5664
5640 5645 5648 5654 5658 5662 5666 5671 5672 5674 5677 5678 5681 5682 5685 5686 5685 5684 5686 5688 5688 5688 5688 5689 5689 5688 5691 5692 5692 5691 5690 5689 5687 5685 5683 5680 5677 5674 5670 5666 5662 5658 5655 5653
5632 5637 5641 5645 5648 5654 5658 5660 5662 5664 5666 5667 5670 5672 5673 5675 5675 5675 5676 5677 5677 5677 5677 5679 5679 5680 5681 5682 5682 5681 5680 5679 5678 5676 5674 5670 5667 5663 5659 5655 5652 5648 5645 5642
5625 5627 5630 5635 5640 5644 5647 5650 5653 5655 5657 5658 5660 5662 5663 5664 5665 5665 5665 5667 5668 5668 5668 5669 5669 5671 5673 5673 5673 5671 5670 5669 5668 5666 5663 5660 5656 5652 5648 5644 5640 5636 5632 5630
5622 5625 5628 5632 5634 5637 5639 5642 5645 5647 5648 5650 5651 5653 5653 5654 5655 5655 5656 5657 5658 5658 5658 5660 5661 5662 5663 5663 5663 5662 5661 5659 5657 5654 5651 5647 5644 5640 5637 5633 5629 5625 5621 5618
5615 5619 5622 5626 5629 5632 5633 5634 5636 5638 5640 5641 5642 5642 5643 5645 5646 5646 5647 5647 5647 5647 5648 5651 5653 5654 5654 5654 5653 5652 5650 5648 5645 5642 5639 5636 5632 5629 5626 5622 5617 5613 5610 5606
5609 5612 5616 5619 5623 5625 5626 5627 5629 5630 5631 5633 5634 5634 5634 5635 5637 5638 5638 5637 5637 5638 5640 5642 5643 5644 5644 5644 5644 5642 5640 5637 5634 5631 5628 5624 5621 5617 5613 5610 5605 5601 5597 5593
5601 5605 5609 5611 5614 5617 5618 5619 5621 5621 5622 5625 5625 5625 5626 5626 5628 5629 5629 5627 5627 5630 5632 5633 5634 5634 5634 5634 5633 5631 5629 5626 5623 5619 5616 5612 5608 5604 5601 5597 5593 5590 5585 5581
5596 5598 5601 5604 5605 5606 5608 5610 5612 5612 5613 5615 5616 5618 5618 5617 5618 5618 5618 5618 5619 5622 5623 5622 5623 5623 5623 5623 5621 5619 5617 5614 5610 5607 5603 5600 5596 5592 5588 5585 5581 5577 5573 5568
5589 5591 5593 5595 5597 5598 5600 5601 5602 5603 5604 5606 5608 5609 5609 5609 5609 5610 5608 5609 5612 5613 5613 5612 5612 5613 5613 5611 5609 5607 5604 5601 5598 5595 5592 5589 5585 5582 5578 5574 5570 5565 5561 5556
5581 5583 5586 5588 5589 5590 5590 5591 5594 5596 5597 5598 5599 5600 5601 5601 5600 5600 5601 5601 5602 5603 5602 5601 5602 5602 5601 5599 5597 5594 5592 5589 5587 5584 5581 5578 5574 5570 5566 5562 5557 5553 5548 5544
5576 5577 5579 5581 5582 5582 5583 5585 5586 5587 5589 5590 5590 5592 5593 5594 5593 5592 5593 5593 5594 5594 5593 5592 5592 5592 5590 5588 5586 5583 5581 5578 5576 5573 5570 5566 5562 5558 5554 5550 5545 5540 5536 5531
5570 5571 5572 5574 5576 5577 5578 5579 5579 5580 5581 5581 5581 5583 5584 5585 5585 5585 5585 5585 5585 5584 5583 5582 5582 5581 5579 5578 5575 5573 5570 5567 5565 5562 5558 5554 5550 5546 5542 5537 5533 5528 5524 5519
5563 5564 5566 5567 5569 5571 5572 5573 5573 5573 5574 5575 5574 5575 5576 5577 5577 5577 5577 5576 5575 5574 5574 5572 5571 5570 5569 5567 5564 5562 5559 5557 5554 5550 5547 5542 5538 5534 5530 5526 5521 5516 5512 5507